Wind_Speed
34 33 33 33 33 33 33 33 33 32 32 31 31 30 30 30 30 30 30 31 31 32 32 32 33 33 34 34 35 35 35 36 36 36 36 36 36 36 36 36 36 36 36 36 36 36 36 35 35 36 36 37 38 39 40 42 43 45 46 47 49 50 51 52 53 54 54 55 56 56 56 56 55 55 54 54 53 53 53 53 52 52 52 52 52 51
34 33 32 32 32 32 32 33 32 32 31 31 30 30 30 30 30 30 30 31 31 32 32 33 33 34 34 34 35 35 36 36 36 36 36 36 36 36 36 36 36 36 35 35 35 35 35 35 35 35 36 37 38 39 41 43 44 46 47 48 49 50 51 52 53 54 55 55 55 55 54 54 53 52 52 51 51 51 51 51 51 51 51 51 51 51
33 32 31 31 31 31 31 32 32 31 31 31 30 30 30 30 30 30 31 31 32 32 33 33 34 34 34 35 35 35 36 36 36 36 36 36 36 36 35 35 35 35 35 35 34 34 34 34 34 35 36 37 39 40 42 43 45 46 48 49 50 51 52 53 53 54 54 54 54 53 52 51 50 50 50 49 49 50 50 50 50 51 51 51 51 51
32 31 30 30 30 30 30 31 31 31 30 30 30 30 30 31 31 31 31 32 32 33 33 33 34 34 34 35 35 36 36 36 36 36 36 36 35 35 35 35 35 34 34 34 33 33 33 33 34 35 36 38 39 41 42 44 45 47 48 49 50 51 52 53 53 53 53 52 52 51 50 49 48 48 48 48 48 49 49 50 50 50 51 51 51 51
31 30 30 30 30 30 30 30 30 30 30 30 31 31 31 31 31 32 32 32 33 33 33 34 34 34 35 35 35 36 36 36 36 36 36 35 35 35 35 35 34 34 33 33 32 32 32 33 34 36 37 38 40 41 42 44 45 47 48 50 51 51 52 52 52 52 51 50 49 48 48 47 47 47 47 47 47 48 49 49 50 51 51 52 52 52
31 30 30 30 29 30 30 30 30 30 30 31 31 31 32 32 32 32 33 33 33 34 34 34 34 34 35 35 35 36 36 36 36 36 36 35 35 35 34 34 33 33 32 32 31 32 32 33 35 36 37 39 40 41 42 44 46 47 48 50 51 51 51 51 51 50 49 48 47 46 46 46 45 46 46 47 47 48 49 50 51 51 52 53 53 53
30 30 30 30 30 30 30 30 30 30 31 31 31 32 32 33 33 33 34 34 34 34 34 34 34 34 35 35 35 36 36 36 36 35 35 35 35 34 34 33 33 32 31 31 31 31 32 34 35 36 37 39 40 41 42 44 45 47 48 49 50 51 50 50 49 48 47 46 45 45 44 45 45 45 46 47 48 49 50 51 52 52 53 54 54 55
30 30 30 30 30 30 31 31 31 31 31 32 32 32 33 33 33 34 34 34 34 34 34 34 34 35 35 35 35 35 35 35 35 35 35 35 34 34 33 32 32 31 30 30 31 31 32 34 35 36 37 38 39 41 42 44 45 47 48 49 49 49 49 48 47 46 45 44 44 44 44 44 45 46 47 48 49 50 51 52 53 54 54 55 55 56
30 30 30 30 31 31 31 31 32 32 32 32 33 33 34 34 34 34 34 35 35 35 34 34 34 34 35 35 35 35 35 35 35 35 34 34 33 33 32 31 31 30 30 30 31 31 33 34 35 36 37 38 40 41 42 43 45 46 47 48 48 47 47 45 44 43 43 42 42 43 43 44 45 46 48 49 50 51 52 53 54 55 55 56 56 57
30 30 31 31 31 31 31 32 32 33 33 33 34 34 34 35 35 34 34 34 35 35 35 34 34 34 34 35 35 35 35 35 35 34 34 33 33 32 31 30 30 29 29 30 31 32 33 34 35 36 37 39 40 41 42 43 44 45 46 46 46 45 44 43 42 42 41 42 42 43 44 45 46 47 49 50 51 53 54 54 55 56 56 57 57 57
31 31 31 31 32 32 32 32 33 33 33 34 34 35 35 35 35 35 35 34 34 34 34 34 34 34 34 34 35 35 35 35 34 34 33 33 32 31 31 30 29 29 30 30 31 32 33 34 35 37 38 39 40 41 42 42 43 43 44 44 44 44 43 42 41 41 41 41 42 43 45 46 47 49 50 52 53 54 55 56 56 57 57 57 58 58
31 31 31 32 32 32 33 33 33 34 34 34 35 36 36 36 36 36 35 34 34 34 34 34 33 33 34 34 34 34 34 34 34 33 32 32 31 31 30 30 30 30 30 31 31 32 34 35 37 38 39 40 40 41 41 41 41 42 42 43 43 42 42 41 41 41 41 42 43 44 46 47 49 50 52 53 54 55 56 56 57 57 58 58 58 58
31 31 32 32 32 33 33 33 34 34 35 35 36 36 36 36 36 36 36 35 35 34 34 33 33 33 33 34 34 34 34 34 33 32 31 31 30 30 30 30 30 30 31 32 32 33 35 36 37 38 39 40 40 40 40 40 40 41 41 42 42 41 41 41 41 41 42 43 45 46 47 49 51 52 53 54 55 56 57 57 57 57 58 58 58 58
32 32 32 32 33 33 33 34 34 35 36 36 36 37 37 37 37 36 36 36 35 34 33 33 32 32 32 33 34 34 34 34 33 32 31 30 30 30 30 31 31 31 32 33 34 35 36 37 38 38 39 39 39 39 39 39 39 39 40 41 41 41 41 41 42 42 43 45 46 48 49 51 52 54 55 56 56 57 57 57 57 58 58 58 58 57
32 32 32 32 33 33 34 34 35 36 36 37 37 37 37 37 37 36 36 35 35 34 33 33 32 31 31 32 33 34 34 34 33 32 31 30 30 30 31 32 32 33 33 34 35 36 37 37 38 38 38 38 38 38 37 38 38 38 39 40 40 41 41 42 42 43 45 46 48 49 51 52 54 55 56 57 57 57 57 58 58 58 58 58 58 57
32 32 32 33 33 34 34 35 36 36 37 37 38 37 37 37 37 36 36 35 35 34 33 32 31 31 30 31 32 33 34 35 34 33 32 31 30 30 31 33 33 34 34 35 36 36 37 37 37 37 37 37 37 37 37 37 37 38 38 39 40 41 41 42 43 44 46 47 49 51 52 54 55 56 57 57 57 58 58 58 58 58 58 58 58 57
32 32 32 33 33 34 34 35 36 37 37 38 38 37 37 37 36 36 35 35 35 34 33 33 32 31 30 30 31 33 34 35 35 35 34 32 31 31 32 33 34 35 35 36 36 36 37 37 37 37 36 36 36 36 36 36 36 37 38 39 40 41 42 43 44 46 47 49 50 52 53 55 56 56 57 57 58 58 58 58 58 58 58 58 58 57
32 32 32 33 33 34 34 35 36 37 38 38 37 37 36 36 36 35 35 35 34 34 33 33 32 32 31 30 31 32 34 35 36 36 35 33 32 32 33 34 35 36 36 36 36 36 36 36 36 36 36 35 35 35 35 35 35 36 37 38 40 41 43 44 46 47 49 50 52 53 54 55 56 57 57 57 58 58 58 58 58 58 58 58 58 58
32 32 33 33 34 34 35 36 37 37 37 37 37 36 36 35 35 35 35 34 34 34 33 33 33 32 32 32 32 33 34 35 36 36 36 35 33 33 34 35 36 36 36 36 36 36 36 36 36 35 35 35 34 34 34 34 35 35 36 38 39 41 43 45 46 48 50 51 53 54 55 56 56 57 57 57 57 57 57 57 58 58 58 58 58 57
32 32 33 33 34 34 35 36 37 37 37 37 36 36 35 35 34 34 34 34 34 34 33 33 33 33 33 32 32 33 35 36 37 37 37 36 35 34 34 35 36 37 37 36 36 36 36 36 35 35 34 34 34 34 34 34 34 35 36 37 39 40 42 44 46 48 50 51 53 54 55 55 56 56 56 56 56 57 57 57 57 57 57 57 57 57
31 32 33 34 34 35 35 36 36 37 37 36 36 35 35 34 33 33 33 33 33 33 33 33 33 33 33 33 32 33 35 36 37 38 38 37 36 35 35 36 37 37 37 36 36 36 36 36 35 34 34 33 33 34 34 34 34 35 36 37 38 40 41 43 45 47 49 51 52 53 54 55 55 56 56 56 56 56 56 56 56 56 57 57 57 57
32 33 33 34 35 35 36 36 36 36 36 36 35 35 34 33 33 32 32 33 33 33 33 33 33 33 33 33 33 33 35 36 37 38 39 38 36 35 35 36 37 37 37 36 36 36 36 35 35 34 34 33 33 33 33 34 34 35 35 36 38 39 41 43 44 46 48 49 51 52 53 54 54 54 55 55 55 55 55 55 55 56 56 56 56 56
32 33 34 35 35 36 36 36 36 36 36 35 34 34 33 33 32 32 32 32 32 32 33 33 33 32 33 33 33 34 34 36 37 38 39 39 38 36 36 37 37 37 37 37 36 36 36 35 34 34 33 33 33 33 33 34 34 35 35 37 38 39 41 43 44 46 47 49 50 51 52 52 53 53 53 53 53 53 54 54 54 55 55 55 55 55
33 34 34 35 35 35 35 35 35 35 35 34 34 33 33 32 32 32 32 32 32 32 33 33 32 32 33 33 33 33 34 35 37 38 39 39 39 38 37 37 38 38 37 37 37 37 37 36 35 34 33 33 33 33 33 34 34 35 36 37 38 40 42 43 45 46 48 49 50 51 51 52 52 51 51 51 51 51 52 52 52 53 53 54 54 54
34 34 35 35 35 35 35 35 34 34 34 33 33 33 32 32 32 31 32 32 33 33 33 33 33 33 33 33 34 34 34 35 36 38 39 40 40 39 38 38 39 39 39 38 38 37 37 36 35 34 34 34 33 33 34 34 34 35 36 38 39 41 43 44 46 47 48 49 50 51 51 51 51 51 51 51 50 50 50 50 50 50 51 52 52 53
35 35 35 35 35 35 34 34 34 33 33 33 33 32 32 32 31 31 32 32 33 34 34 34 34 34 34 34 34 34 34 34 36 37 39 40 40 40 39 39 39 40 40 39 38 38 38 37 36 35 35 34 34 34 34 34 35 36 37 39 40 42 44 45 46 47 48 49 50 51 51 51 52 51 51 51 51 51 51 50 50 49 49 49 50 50
35 35 35 35 34 34 34 33 33 33 33 33 33 32 32 32 31 31 32 33 33 34 34 35 35 35 35 35 34 34 33 34 35 36 38 40 40 40 40 40 40 40 40 40 39 39 39 38 37 36 36 35 35 35 35 35 36 37 38 40 41 43 44 45 46 47 48 49 50 51 51 52 52 52 52 53 53 53 52 52 51 50 49 48 48 48
35 35 35 34 34 34 33 33 33 33 32 32 33 33 32 32 32 32 32 33 34 34 35 35 35 36 35 35 34 33 33 33 34 36 38 39 40 41 41 41 41 41 42 41 41 40 39 39 38 38 37 37 37 37 37 37 37 38 39 41 42 44 45 46 47 48 49 50 50 51 52 52 52 53 53 53 53 53 53 52 51 50 49 49 48 48
35 35 34 34 34 33 33 32 32 32 32 32 32 32 32 32 32 33 33 33 34 35 35 35 36 36 36 35 34 33 32 32 34 36 38 40 40 41 41 42 42 42 43 43 43 42 40 39 39 39 39 39 38 38 38 38 39 40 41 42 43 45 46 47 48 49 50 50 51 52 52 52 53 53 53 53 53 53 52 52 51 50 49 49 48 47
34 34 34 34 33 33 32 32 32 32 32 32 32 32 33 33 33 33 34 34 34 35 35 35 35 35 36 35 35 34 32 32 34 36 39 40 41 42 42 42 43 43 43 44 45 44 42 41 40 40 40 41 40 40 40 40 40 41 43 44 45 46 47 48 49 50 51 51 52 52 52 53 53 53 53 53 53 52 51 51 50 49 48 48 47 46
33 33 33 33 33 32 32 31 31 31 31 32 32 32 33 33 33 34 34 35 35 35 35 35 35 35 35 35 35 34 33 33 35 37 39 40 42 42 43 43 43 44 44 45 46 47 46 44 42 41 41 42 42 41 41 41 42 43 45 46 47 47 48 49 50 51 51 52 52 53 53 53 53 53 53 53 52 51 50 49 48 48 47 47 46 45
33 33 32 32 32 32 31 31 31 31 31 31 32 32 33 34 34 34 35 35 35 35 35 35 35 35 35 35 35 35 34 34 36 38 39 41 42 43 43 44 44 44 45 45 46 47 48 47 45 43 42 43 43 43 43 43 44 45 46 48 48 49 50 50 51 52 52 53 53 53 53 53 53 53 52 51 51 50 49 48 47 46 46 46 45 44
32 32 32 32 31 31 31 31 31 31 31 32 32 33 33 34 34 35 35 35 35 35 35 35 35 35 35 35 35 35 35 35 37 38 40 42 43 44 44 45 45 45 46 46 47 48 48 49 48 47 45 45 44 45 45 46 46 47 48 49 50 51 51 51 52 52 53 53 53 54 53 53 53 52 51 50 49 48 47 46 45 45 45 44 44 43
31 31 31 31 31 31 31 31 31 31 31 32 32 33 33 34 34 34 34 34 34 35 35 35 35 35 35 35 35 35 35 36 37 39 41 42 44 45 45 46 46 47 47 48 48 49 49 50 50 49 49 48 47 46 46 47 48 49 49 50 51 51 52 52 52 53 53 54 54 54 54 53 52 51 50 49 47 46 45 44 44 43 43 42 42 41
31 31 31 30 30 30 30 31 31 31 32 32 33 33 33 33 33 33 33 33 33 33 34 34 34 35 35 35 36 36 36 36 37 39 41 43 44 45 46 46 47 47 48 49 49 50 51 51 51 51 51 51 50 48 48 48 49 50 50 51 51 52 52 52 52 53 54 54 54 54 54 53 52 50 49 47 46 45 44 43 42 41 41 40 39 39
30 30 30 30 30 30 30 31 31 31 32 32 32 33 33 33 32 32 32 32 32 32 33 33 33 34 34 35 35 36 36 37 38 39 41 43 44 45 46 47 47 48 49 50 51 51 52 52 52 52 52 52 52 51 50 50 50 50 51 51 51 52 52 52 52 53 53 54 54 54 53 52 51 49 47 46 44 43 42 41 40 39 39 38 37 37
30 29 30 30 30 30 30 30 31 31 31 31 32 31 31 31 31 31 31 31 31 31 32 32 32 33 33 34 35 35 36 37 38 39 40 42 44 45 46 47 47 48 49 50 51 52 52 53 53 53 53 53 53 53 52 52 51 51 51 51 51 52 52 52 52 52 53 53 53 53 52 51 50 48 46 44 43 41 40 39 38 37 37 36 36 35
29 29 29 29 30 30 30 30 30 30 30 30 30 30 29 29 29 29 29 29 30 30 31 31 31 32 32 33 34 34 35 36 37 38 40 41 42 44 45 46 47 47 48 49 50 51 52 53 53 54 54 53 53 53 53 52 52 52 52 51 51 51 51 52 52 52 52 52 52 52 51 50 48 47 45 43 42 40 39 38 37 36 36 35 35 34
29 28 29 29 29 29 29 29 29 29 29 28 28 28 27 27 27 27 28 28 29 29 30 30 31 31 31 32 33 34 34 35 36 37 38 40 41 42 44 45 46 47 47 48 49 50 51 52 53 53 53 54 53 53 53 52 52 52 52 52 52 51 51 51 51 51 51 51 51 51 50 49 47 46 44 43 41 40 38 37 36 35 35 35 35 34
28 28 28 28 28 28 28 28 27 27 26 26 26 26 26 26 26 26 27 27 28 28 29 29 30 30 31 31 32 33 34 35 36 37 38 39 40 41 43 44 45 46 47 47 48 49 50 51 51 52 52 53 53 53 52 51 51 51 52 52 52 52 51 51 50 50 50 50 50 49 49 48 46 45 44 42 40 39 38 37 36 35 35 35 36 36
28 27 28 28 27 27 27 26 26 25 24 24 24 25 25 25 25 26 26 27 27 28 29 29 30 31 31 32 32 33 34 35 36 37 38 39 40 41 42 43 44 45 46 47 47 48 49 49 50 51 51 51 52 52 51 51 50 50 51 51 52 52 51 50 49 49 49 49 48 48 47 47 46 44 43 42 40 38 36 36 35 35 35 35 36 37
27 27 27 26 26 25 25 24 24 23 23 23 23 24 24 25 25 26 26 27 27 28 29 30 31 32 32 33 33 34 35 35 36 37 38 39 40 41 42 42 43 44 45 46 47 47 48 48 49 49 50 50 51 51 51 50 49 49 49 50 51 51 51 50 48 47 47 47 47 47 46 46 45 44 43 42 39 37 35 34 34 34 34 35 36 37
26 26 25 25 24 24 23 23 22 22 22 23 23 24 24 25 26 26 27 28 29 30 31 32 32 33 33 34 34 35 35 36 36 37 38 39 40 41 42 42 43 44 45 46 46 47 47 47 48 48 49 49 49 50 50 49 49 48 48 48 49 50 50 49 48 47 46 46 46 46 46 45 45 44 43 41 39 37 35 33 32 32 33 34 35 36
25 25 24 24 23 23 22 22 21 21 22 22 23 24 25 26 27 28 29 29 30 31 32 33 34 35 35 35 35 36 36 37 37 38 39 39 40 41 42 42 43 44 44 45 45 46 47 47 47 47 47 48 48 48 48 48 48 47 47 47 47 47 47 48 47 47 46 46 46 46 46 46 45 44 43 40 38 36 34 33 32 32 32 33 34 34
24 23 23 22 22 21 21 21 21 21 22 22 23 24 25 27 28 29 30 31 32 33 34 35 35 36 36 37 37 37 38 38 38 39 39 40 41 41 42 42 43 43 44 44 44 45 45 46 46 46 46 46 46 46 46 47 47 46 46 45 45 45 46 46 46 46 47 47 47 47 46 46 45 44 42 40 38 36 34 33 32 32 32 32 32 32
23 22 22 21 21 20 20 20 21 21 21 22 23 25 26 27 29 30 31 32 33 34 35 36 36 37 37 38 38 39 39 39 39 40 40 41 41 42 42 43 43 43 43 43 44 44 44 45 45 46 46 46 45 45 44 44 45 45 45 45 44 44 45 45 46 46 47 48 48 48 47 46 44 43 41 39 37 36 34 33 32 32 31 31 30 30
22 21 21 20 20 20 20 20 21 21 22 23 24 25 27 28 29 31 32 33 34 35 36 36 37 37 38 38 39 39 40 40 40 40 41 41 42 42 42 43 43 43 43 43 43 43 44 44 44 44 45 45 45 44 43 43 43 44 44 44 44 44 44 45 45 46 47 48 48 48 46 45 43 42 40 39 37 36 34 32 31 30 30 29 29 28
22 21 20 20 19 19 20 20 21 21 22 23 24 26 27 29 30 31 33 34 35 35 36 37 37 37 38 38 39 39 39 40 40 40 41 42 42 42 42 42 42 43 43 43 43 43 43 43 43 43 43 43 44 44 43 42 42 42 43 43 43 44 45 45 45 46 47 47 47 46 45 43 42 40 39 38 37 36 34 32 30 29 28 28 28 27
21 20 19 19 19 19 20 21 21 22 23 24 25 26 28 29 31 32 33 34 35 36 36 37 37 37 38 38 38 38 39 39 40 40 41 42 42 42 42 42 42 42 42 42 43 43 43 43 43 43 42 42 43 43 43 42 42 41 42 42 43 44 44 45 45 46 46 46 46 45 43 41 39 38 38 37 36 35 33 31 29 28 27 27 27 27
20 20 19 19 19 19 20 21 22 23 24 25 26 27 28 30 31 32 33 34 35 36 36 37 37 37 37 38 38 38 38 39 40 40 41 41 42 42 42 42 42 42 42 43 43 43 43 44 44 43 42 41 41 42 43 42 42 41 41 41 42 43 44 44 45 45 45 45 44 43 41 39 37 36 35 35 35 34 32 30 29 27 26 26 27 27
20 19 19 19 19 20 20 21 22 23 24 25 27 28 29 30 32 33 34 35 35 36 36 36 37 37 37 37 38 38 38 39 40 40 41 41 42 42 42 42 42 42 43 43 43 43 43 44 44 43 41 40 40 40 41 41 41 41 40 40 40 41 42 43 44 44 44 43 42 41 39 37 35 34 33 33 33 33 32 30 28 27 26 27 27 27
Wind_Direction
285 285 285 285 285 286 286 286 287 287 288 288 289 289 290 290 290 291 291 291 291 291 291 291 290 290 290 290 290 290 290 290 291 291 291 292 292 292 293 293 293 294 294 295 296 297 298 299 299 299 300 300 301 302 303 303 304 305 306 306 307 307 308 309 309 310 310 311 311 311 312 312 312 312 312 312 312 312 312 311 311 311 311 310 309 307
285 284 284 284 284 284 285 286 286 287 288 289 289 290 290 291 291 291 291 291 291 291 291 290 290 290 290 290 290 290 291 291 291 291 291 292 292 292 293 293 293 294 295 296 297 297 298 298 299 299 299 300 301 303 304 305 305 306 306 307 308 308 309 310 310 311 312 312 313 313 313 313 314 314 314 314 314 314 314 314 314 313 313 312 311 309
284 284 283 283 283 283 284 285 286 287 289 290 290 291 291 291 291 291 291 291 290 290 290 290 290 290 290 290 291 291 291 291 291 291 291 292 292 292 293 293 294 295 295 296 297 297 297 298 298 299 300 301 303 304 305 306 306 307 307 308 309 309 310 311 312 312 313 314 314 315 315 315 316 316 316 316 316 316 315 315 315 314 313 312 311 310
283 283 283 283 283 283 283 285 286 287 289 290 290 291 291 291 291 291 291 290 290 290 289 289 290 290 290 291 291 291 291 291 291 291 292 292 292 293 293 294 295 295 296 296 296 296 297 297 298 299 301 302 304 305 306 307 307 308 308 309 309 310 311 312 313 314 315 315 316 316 317 317 317 317 317 317 317 316 316 315 315 314 313 312 311 309
283 283 283 283 283 283 283 284 286 287 288 289 290 290 291 291 291 291 290 290 290 289 289 290 290 290 290 291 291 291 291 291 291 292 292 293 293 294 294 295 295 295 295 296 296 296 297 298 299 301 302 304 305 306 307 308 308 309 309 309 310 311 312 313 314 315 316 317 317 318 318 318 318 318 318 317 317 316 315 315 314 313 311 310 309 308
283 283 283 283 283 283 284 284 285 287 288 288 289 290 290 290 290 290 290 290 290 290 290 290 290 291 291 291 291 291 291 291 292 292 293 293 294 294 295 295 295 295 295 295 295 296 297 299 300 302 303 305 306 307 308 308 309 309 309 310 311 312 313 314 315 316 317 318 318 318 319 319 318 318 318 317 316 315 314 313 312 311 309 308 307 306
283 283 283 283 283 284 284 285 285 286 287 288 288 289 289 290 290 290 290 290 290 290 290 291 291 291 291 291 291 291 292 292 292 293 293 293 294 294 294 294 294 294 294 295 295 297 298 300 301 302 304 305 306 307 308 308 308 309 309 310 312 313 314 315 316 317 318 318 318 318 318 318 318 317 316 315 315 313 312 311 310 309 308 306 305 304
282 282 283 283 284 284 285 285 286 287 287 288 288 289 289 289 290 290 290 290 290 291 291 291 291 292 292 292 292 292 292 292 292 293 293 293 294 294 294 293 293 293 293 294 296 297 298 300 301 302 304 305 306 307 307 308 308 309 310 311 312 313 314 316 316 317 317 317 318 317 317 317 316 315 314 314 313 312 311 310 308 307 306 305 304 303
282 282 282 283 284 284 285 286 286 287 288 289 289 289 289 289 289 290 290 290 291 291 291 291 292 292 292 292 292 292 292 292 292 293 293 293 293 293 293 292 292 292 293 294 295 297 298 299 300 301 303 304 305 306 307 308 308 309 310 311 312 313 314 315 315 316 316 316 316 316 315 315 314 313 313 312 311 310 309 308 307 306 305 304 303 302
281 282 282 283 284 285 286 287 287 288 289 289 290 290 290 289 289 289 289 290 290 290 291 291 292 292 292 292 292 292 292 292 292 293 293 293 292 292 291 291 291 291 292 293 294 296 297 298 299 300 302 303 304 306 307 308 309 310 310 311 312 312 313 314 314 314 314 314 314 314 313 313 312 312 311 310 310 309 308 307 307 306 305 304 303 302
281 282 283 284 285 285 286 287 288 289 289 290 290 290 290 290 290 289 289 289 289 290 291 291 291 292 292 292 292 292 292 292 292 292 292 292 292 291 291 290 290 290 291 292 293 294 295 297 298 300 301 303 304 306 307 308 309 309 309 310 310 311 311 312 312 313 313 313 312 312 312 311 311 311 310 310 309 308 308 307 306 305 305 304 303 302
282 283 283 284 285 287 287 288 288 289 290 290 290 290 290 290 290 290 290 290 290 290 290 291 291 292 292 291 291 291 291 291 291 291 291 291 290 290 289 289 289 289 290 291 292 293 295 296 298 300 301 303 305 306 308 308 308 308 308 308 308 309 310 311 311 311 311 311 311 311 311 310 310 310 310 309 309 308 307 307 306 305 304 304 303 302
283 284 285 285 287 288 289 289 290 290 291 291 291 291 291 291 291 291 291 291 290 290 290 290 291 291 292 292 292 291 291 291 291 290 290 289 289 288 287 287 287 288 289 290 292 293 295 297 298 300 302 304 305 307 308 308 307 307 306 306 307 308 309 310 310 311 311 311 310 310 310 310 310 309 309 309 308 308 307 307 306 305 305 304 303 302
284 285 286 287 288 289 290 291 291 292 292 291 291 291 291 291 291 291 291 291 291 291 291 291 291 292 292 292 292 292 291 291 290 290 289 288 287 287 286 286 287 288 289 290 292 294 296 297 299 301 302 304 305 306 307 307 306 306 305 306 306 307 308 309 309 310 310 310 310 310 310 310 310 309 309 309 308 308 308 307 306 306 305 304 303 302
286 287 288 289 290 291 291 292 292 292 292 292 292 291 291 291 291 291 291 291 291 291 291 292 292 292 292 292 292 292 291 291 290 290 289 288 287 286 286 287 288 289 290 292 293 295 297 298 300 301 303 304 305 306 306 306 305 305 305 305 306 307 308 308 309 309 309 309 310 310 310 310 310 310 309 309 309 308 308 307 306 306 305 304 303 302
287 288 289 290 291 291 292 292 292 292 292 292 291 291 291 291 291 291 291 291 291 291 291 291 292 292 292 291 291 291 291 291 290 290 289 288 288 287 287 288 289 291 292 293 295 296 298 299 300 302 303 304 305 305 305 305 305 304 304 305 305 306 307 307 308 309 309 309 310 310 310 310 310 310 309 309 309 308 308 307 307 306 305 304 303 302
288 289 290 291 291 292 292 292 292 292 291 291 291 291 291 291 291 291 291 291 291 291 292 292 292 292 292 291 291 291 291 291 291 291 291 290 290 290 289 290 291 292 293 294 296 297 298 299 301 302 303 304 304 305 305 305 304 304 304 304 305 306 306 307 308 309 309 310 310 310 310 310 310 310 309 309 309 308 308 307 306 306 305 304 303 302
289 290 291 291 292 292 292 292 292 291 291 290 290 290 290 291 291 291 291 291 292 292 292 293 294 294 294 293 292 292 292 292 292 292 292 292 292 292 291 292 292 293 294 296 297 298 299 300 301 302 303 304 304 304 304 304 304 303 304 304 305 306 307 308 309 309 310 310 310 310 310 310 310 310 309 309 309 308 307 307 306 305 305 304 303 302
290 291 292 292 293 293 293 292 292 291 290 290 290 290 290 291 291 291 292 292 293 293 294 295 295 296 296 296 295 294 294 293 293 294 294 293 293 293 293 292 293 294 295 296 298 299 299 300 301 302 303 304 304 304 304 303 303 303 304 305 306 307 308 309 309 310 310 310 310 310 310 310 310 309 309 309 308 308 307 306 306 305 304 303 303 302
292 292 293 293 293 293 293 292 292 291 291 291 291 291 291 291 291 292 292 293 294 295 296 297 297 298 298 298 298 297 296 295 295 295 295 294 294 294 294 293 293 294 296 297 298 299 300 301 302 303 304 304 304 304 303 303 303 303 304 305 306 307 308 309 309 310 310 310 310 310 310 310 309 309 308 308 308 307 306 305 305 304 303 302 302 301
293 294 294 294 294 294 294 293 292 292 292 292 292 292 292 292 292 293 293 294 295 296 297 298 299 299 300 300 299 298 297 296 296 295 295 295 295 295 295 294 294 295 297 298 299 300 301 302 303 304 305 305 305 304 304 303 303 304 305 306 306 307 308 308 309 309 309 309 309 309 309 309 308 308 308 307 307 306 305 305 304 303 302 301 300 300
295 296 295 295 295 295 294 293 293 293 292 293 293 293 293 293 293 294 294 295 296 297 298 299 300 300 301 301 300 299 298 297 296 296 296 295 295 295 295 295 295 296 298 299 300 301 302 303 304 305 305 305 305 304 304 303 303 304 305 305 306 306 307 307 308 308 308 308 308 308 308 308 308 307 307 307 306 306 305 304 303 302 301 300 299 298
297 297 296 296 295 294 294 293 293 293 293 293 293 294 294 294 295 295 296 297 297 298 299 299 300 301 302 301 301 300 299 298 297 296 296 296 296 297 296 296 296 297 299 301 302 302 303 304 305 306 306 305 305 304 304 303 303 304 304 305 305 306 306 307 307 307 308 308 308 308 308 307 307 307 306 306 306 305 304 303 302 301 299 298 297 296
298 297 296 295 295 294 294 293 293 293 293 293 294 294 295 296 296 297 298 299 299 299 300 301 302 302 302 302 301 301 300 298 297 297 296 296 297 298 298 298 298 299 301 302 303 304 304 305 306 306 306 305 305 304 304 303 303 303 304 304 305 305 306 307 308 308 308 308 308 308 307 307 307 306 306 306 305 304 303 302 300 299 297 296 295 294
298 297 296 295 294 294 294 294 294 294 294 294 295 295 296 297 298 299 300 301 301 301 302 302 303 304 303 302 302 301 300 299 298 297 297 297 298 299 299 300 300 301 302 304 304 305 305 305 306 306 306 306 305 305 304 304 303 303 304 304 305 306 307 308 309 309 309 309 308 308 307 307 307 306 306 306 305 305 304 302 300 298 296 294 293 292
297 296 295 295 294 294 294 295 295 295 295 296 296 297 298 299 300 301 302 303 303 303 304 304 305 304 304 303 302 301 301 300 298 297 296 297 298 299 301 301 301 302 304 305 305 305 305 306 306 307 307 306 306 305 305 304 304 304 304 305 306 307 308 309 309 309 309 308 308 307 307 307 307 307 307 307 307 306 306 304 303 301 298 296 294 292
296 295 295 295 295 295 295 296 296 297 297 298 299 299 300 301 302 303 304 304 304 304 305 305 305 304 304 303 302 302 301 300 299 297 297 297 299 300 301 302 302 303 304 305 305 306 306 306 307 307 307 307 306 306 305 305 305 305 306 307 308 309 309 310 310 309 308 308 308 308 308 308 308 309 309 309 309 308 308 307 306 305 303 301 298 296
296 296 296 296 296 297 297 297 298 299 299 300 301 302 303 304 304 305 305 304 304 305 305 305 305 304 304 303 303 302 302 301 299 298 297 298 299 301 302 303 303 304 305 305 306 306 306 307 307 308 307 307 307 307 307 307 307 308 308 309 309 309 310 310 309 309 308 308 309 309 309 310 310 311 311 311 311 310 310 309 308 307 306 304 302 301
297 297 298 298 298 298 299 299 300 301 301 302 303 304 305 305 305 305 305 305 305 305 305 305 305 304 304 304 304 304 304 303 301 300 299 299 301 302 304 304 305 305 306 306 306 306 306 307 308 308 308 308 308 308 308 309 309 309 309 309 309 310 310 310 310 309 309 310 310 311 311 312 312 313 313 313 312 311 311 310 309 308 307 306 305 303
298 298 299 299 299 300 300 301 302 302 303 304 304 305 306 306 306 306 306 306 306 306 305 305 305 305 305 305 306 306 306 305 303 302 301 302 303 304 305 305 306 306 307 307 307 306 306 307 307 308 308 308 309 309 310 310 310 310 310 310 310 310 311 311 310 310 311 311 312 313 313 314 314 314 314 314 313 312 311 310 309 308 308 307 306 305
299 299 299 300 300 301 302 302 303 304 304 305 306 306 307 307 307 307 307 307 307 307 306 307 307 307 307 307 308 308 309 308 306 304 304 304 305 306 306 306 307 307 307 307 307 307 307 307 307 307 308 308 309 310 311 311 311 311 311 311 311 312 312 312 311 311 312 312 313 314 315 315 316 315 315 314 313 312 311 310 310 309 309 309 308 307
300 300 300 301 301 302 303 304 304 305 305 306 307 307 308 308 308 308 308 308 308 308 308 308 309 309 309 310 310 311 312 311 309 307 306 306 307 307 308 308 308 308 308 307 307 307 307 308 308 308 308 309 310 311 311 312 313 313 313 313 313 313 313 313 312 313 313 314 314 315 316 316 316 316 316 315 313 312 311 310 310 310 310 310 309 308
301 301 301 302 302 303 304 305 305 306 306 307 307 308 308 309 309 309 309 309 309 309 310 310 311 311 312 312 313 314 314 313 311 310 309 309 309 309 309 309 309 309 308 308 307 307 307 308 309 309 309 309 310 312 313 313 314 314 314 314 314 314 314 314 314 314 314 314 315 316 317 317 317 317 316 315 313 312 311 311 311 311 311 311 310 310
302 302 303 303 304 305 305 306 307 307 308 308 308 309 309 309 309 309 309 310 310 311 311 312 313 313 314 315 315 316 316 316 314 312 312 311 311 311 311 311 310 310 309 309 308 308 308 308 309 310 310 310 311 312 313 314 314 314 315 315 315 315 315 315 315 314 315 315 316 317 317 318 318 317 316 315 313 312 311 311 311 312 312 311 311 310
303 303 304 304 305 306 307 307 308 308 308 309 309 309 309 309 310 310 311 311 312 313 314 314 315 316 317 317 318 319 319 318 316 315 314 313 312 312 312 312 311 311 310 309 309 309 309 309 310 310 311 311 312 313 313 314 314 314 315 315 315 315 315 315 315 315 315 316 316 317 318 318 318 318 317 315 313 311 310 310 311 312 312 311 311 311
304 305 305 306 307 307 308 308 308 309 309 309 309 310 310 310 311 311 313 314 315 316 316 317 318 319 320 321 321 321 321 320 318 317 315 314 313 313 312 312 312 311 310 310 310 310 309 310 310 311 311 312 312 313 313 313 313 314 314 315 315 315 315 316 316 316 316 317 317 318 319 319 319 318 317 315 313 311 309 309 310 311 311 311 311 311
305 306 306 307 307 308 308 309 309 309 309 309 310 310 310 311 312 313 315 316 317 318 319 320 322 323 324 325 324 324 323 322 321 319 317 315 314 313 312 312 312 311 310 310 310 310 310 310 310 311 311 311 312 312 313 313 313 313 314 314 314 315 316 316 317 317 317 318 318 319 319 319 319 318 317 315 312 310 308 308 308 309 310 311 311 311
306 307 307 307 307 308 308 309 309 309 309 310 310 311 312 313 314 316 318 319 320 321 322 323 324 326 327 327 327 326 325 324 322 320 318 316 314 313 312 312 312 311 310 309 309 309 309 309 310 310 311 311 311 312 312 312 313 313 314 314 314 315 316 317 317 317 318 318 319 319 320 320 319 319 317 315 313 310 307 306 307 308 310 311 313 313
306 307 307 308 307 308 308 308 308 309 309 310 311 312 313 315 317 319 321 323 324 324 325 325 326 327 328 329 328 327 326 324 322 321 319 317 315 314 313 312 312 311 310 309 309 308 308 309 309 309 310 310 311 311 312 312 313 314 314 314 315 316 317 317 318 318 318 319 319 320 320 320 320 319 318 316 314 310 307 306 306 308 311 313 315 315
307 307 307 307 307 307 307 308 308 309 310 311 313 314 316 318 320 322 324 325 325 326 326 327 327 328 329 329 329 328 327 325 324 322 321 318 317 315 314 313 312 311 310 310 309 308 308 308 309 309 310 310 310 311 312 313 314 315 316 316 316 317 317 318 319 319 319 320 320 321 321 321 321 321 320 318 315 312 308 306 306 308 311 315 317 318
307 307 307 306 306 307 307 308 309 310 312 314 316 318 319 321 323 324 325 325 326 325 325 326 326 327 328 328 328 328 327 326 325 324 323 321 319 317 316 314 313 312 311 310 310 309 309 309 309 310 310 310 311 311 312 314 316 317 317 318 318 318 318 319 319 320 320 321 322 322 323 323 322 322 321 320 317 314 311 308 308 309 313 316 318 319
306 306 305 305 305 306 307 308 310 312 315 317 320 321 322 323 324 324 325 325 325 325 325 325 325 326 327 327 327 327 327 327 326 325 324 323 321 320 318 317 315 314 313 312 311 311 310 310 310 310 311 311 311 312 314 315 317 318 319 319 318 318 318 319 320 321 322 323 324 324 324 324 324 324 323 322 320 317 314 311 311 312 315 317 318 318
305 304 304 304 305 306 307 310 312 315 318 320 322 323 323 323 324 324 324 324 324 325 325 325 325 325 326 326 326 326 326 326 326 326 326 325 324 322 321 319 318 317 316 314 314 313 313 312 311 311 311 312 312 314 315 317 318 319 319 319 319 319 320 321 322 323 324 325 326 327 327 327 326 326 326 325 323 321 319 317 316 316 318 319 319 317
303 303 303 303 305 306 308 312 314 317 320 322 323 323 323 323 323 324 324 325 325 325 325 325 324 324 324 325 325 325 326 326 327 327 327 326 326 325 323 322 321 320 318 316 316 315 314 314 313 313 313 313 314 316 317 318 319 319 320 320 320 320 321 322 324 325 326 327 328 329 330 329 329 328 328 327 326 325 324 323 322 321 321 320 319 317
301 301 302 303 305 308 311 313 316 318 321 322 322 323 323 324 324 324 325 325 325 325 325 324 324 324 324 324 325 325 326 327 327 328 328 328 328 327 326 325 323 322 321 319 318 317 316 315 315 315 315 315 316 317 319 320 320 320 320 321 321 321 322 324 326 328 329 330 331 332 332 332 331 331 331 330 329 329 328 327 327 326 324 322 319 317
299 300 301 303 306 309 312 314 316 318 321 322 323 323 323 324 325 325 325 325 325 325 324 324 324 325 325 326 326 326 327 328 329 329 330 329 329 328 328 327 325 324 322 321 320 319 318 317 316 316 317 317 318 319 320 321 321 322 322 322 323 323 325 327 329 330 331 332 333 334 334 334 333 333 333 332 331 331 331 330 329 328 326 324 321 318
298 299 301 304 307 309 311 313 316 318 320 322 323 323 324 324 325 325 325 325 325 325 325 325 325 326 327 327 328 328 329 330 330 331 331 331 330 330 329 328 327 326 324 323 322 321 320 319 319 319 319 320 321 322 323 323 324 324 324 325 325 326 328 330 332 333 333 334 334 335 335 335 335 335 334 333 332 332 331 331 330 330 328 326 324 322
298 299 301 304 306 309 311 313 315 318 320 322 323 324 324 325 325 325 325 325 325 325 326 326 327 327 328 328 329 330 331 331 332 333 333 332 331 331 330 329 328 327 326 325 324 323 322 322 321 321 322 323 323 324 325 326 326 326 327 327 328 330 331 333 334 334 334 334 334 335 336 336 336 335 335 333 332 332 331 332 332 333 333 331 329 327
298 299 301 303 305 308 310 312 315 317 319 321 323 324 324 325 325 325 325 325 326 326 327 327 328 328 329 330 330 331 332 333 334 334 334 333 332 332 331 330 330 329 328 327 326 326 325 324 324 324 325 326 327 327 328 328 329 329 330 330 331 332 333 334 335 335 334 334 335 335 336 336 337 336 335 333 332 332 332 333 335 338 338 336 333 331
298 299 300 302 305 307 309 312 314 317 319 321 322 324 324 324 324 324 325 326 327 327 328 328 328 329 330 331 332 333 334 335 335 335 335 334 333 333 332 332 331 330 329 329 328 328 327 327 327 327 328 330 330 330 330 331 332 332 332 333 333 334 334 334 334 334 334 334 335 336 337 337 337 337 335 334 333 333 334 337 340 343 343 340 337 333
297 298 300 302 304 306 309 311 314 316 318 320 322 323 323 324 324 325 325 326 327 328 328 328 329 330 332 333 334 335 336 337 337 336 336 335 335 334 334 333 333 332 331 330 330 330 329 329 328 329 331 332 333 333 333 334 334 333 333 334 334 334 334 333 333 334 334 334 335 336 337 337 338 338 337 336 336 337 338 340 344 346 346 343 338 334
Height
3058 3058 3057 3056 3055 3054 3053 3052 3052 3051 3050 3050 3049 3049 3048 3048 3047 3046 3045 3045 3044 3043 3042 3042 3041 3040 3039 3038 3037 3036 3035 3034 3033 3032 3032 3031 3030 3029 3028 3027 3027 3026 3025 3023 3022 3021 3020 3019 3018 3017 3016 3015 3014 3013 3012 3011 3010 3008 3007 3006 3004 3003 3002 3000 2999 2997 2996 2994 2992 2990 2988 2986 2984 2982 2981 2979 2977 2975 2973 2972 2970 2968 2967 2965 2964 2962
3056 3056 3055 3054 3053 3052 3051 3050 3049 3049 3048 3048 3047 3047 3046 3045 3045 3044 3043 3042 3042 3041 3040 3039 3038 3037 3037 3036 3035 3033 3032 3032 3031 3030 3029 3028 3027 3027 3026 3025 3024 3023 3022 3021 3019 3018 3017 3016 3015 3014 3013 3012 3011 3010 3009 3007 3006 3005 3003 3002 3001 2999 2998 2996 2995 2993 2991 2989 2987 2986 2983 2982 2980 2978 2976 2974 2972 2971 2969 2967 2966 2964 2962 2961 2959 2958
3054 3053 3053 3052 3051 3050 3049 3048 3047 3047 3047 3046 3045 3044 3044 3043 3042 3042 3041 3041 3040 3039 3038 3037 3036 3035 3034 3033 3032 3031 3030 3029 3028 3027 3026 3026 3025 3024 3023 3022 3021 3020 3019 3017 3017 3016 3014 3013 3012 3011 3010 3009 3008 3007 3006 3004 3002 3001 3000 2998 2997 2995 2994 2992 2991 2989 2987 2985 2983 2981 2979 2977 2975 2973 2972 2970 2968 2967 2965 2963 2962 2960 2958 2957 2955 2954
3052 3051 3050 3050 3049 3048 3047 3047 3046 3045 3044 3044 3043 3042 3042 3041 3040 3040 3039 3038 3037 3037 3036 3035 3034 3033 3032 3031 3029 3028 3027 3026 3025 3024 3024 3023 3022 3021 3020 3019 3018 3017 3016 3015 3014 3012 3012 3011 3010 3008 3007 3006 3005 3003 3002 3001 2999 2997 2996 2994 2992 2991 2990 2988 2986 2984 2982 2980 2978 2977 2974 2973 2971 2969 2967 2966 2964 2963 2961 2959 2957 2956 2954 2953 2951 2950
3049 3049 3048 3047 3047 3046 3045 3045 3044 3043 3042 3042 3041 3040 3039 3039 3038 3037 3037 3036 3035 3034 3033 3032 3032 3030 3029 3028 3027 3026 3025 3024 3023 3022 3021 3020 3019 3018 3017 3016 3015 3014 3013 3012 3011 3010 3009 3008 3007 3005 3004 3003 3002 3000 2998 2997 2995 2993 2992 2990 2989 2987 2985 2984 2982 2980 2978 2976 2974 2972 2970 2969 2967 2965 2964 2962 2961 2959 2957 2956 2954 2952 2950 2949 2947 2946
3047 3047 3046 3045 3044 3044 3043 3042 3042 3041 3040 3040 3039 3038 3037 3036 3036 3035 3034 3033 3033 3032 3031 3030 3029 3028 3027 3026 3024 3023 3022 3021 3020 3019 3018 3017 3016 3015 3014 3013 3012 3011 3010 3009 3008 3007 3006 3005 3003 3002 3001 2999 2998 2997 2995 2993 2992 2990 2988 2986 2985 2983 2981 2979 2977 2976 2973 2972 2970 2968 2967 2965 2963 2962 2960 2958 2957 2955 2953 2952 2950 2948 2946 2944 2943 2941
3045 3044 3043 3043 3042 3042 3041 3040 3040 3039 3038 3037 3037 3036 3035 3034 3033 3033 3032 3031 3030 3029 3028 3027 3026 3025 3024 3023 3022 3021 3019 3018 3017 3016 3015 3014 3013 3012 3011 3010 3009 3008 3007 3006 3005 3004 3003 3002 3000 2999 2998 2996 2995 2993 2992 2990 2988 2986 2984 2982 2981 2979 2977 2975 2973 2971 2969 2968 2966 2964 2963 2961 2959 2958 2956 2954 2953 2951 2949 2947 2946 2944 2942 2940 2938 2937
3042 3042 3041 3041 3040 3039 3038 3038 3037 3037 3036 3035 3034 3033 3033 3032 3031 3030 3029 3028 3027 3027 3026 3025 3023 3022 3021 3020 3019 3017 3017 3016 3014 3013 3012 3011 3010 3009 3008 3007 3006 3005 3004 3003 3002 3001 3000 2999 2997 2996 2995 2993 2992 2991 2989 2987 2985 2982 2980 2978 2977 2975 2973 2971 2969 2967 2966 2964 2962 2961 2959 2957 2956 2954 2952 2950 2949 2947 2945 2943 2941 2940 2937 2936 2934 2932
3041 3040 3039 3038 3037 3037 3036 3035 3035 3034 3033 3032 3032 3031 3030 3030 3029 3028 3027 3026 3025 3024 3023 3022 3021 3020 3019 3017 3016 3015 3014 3012 3012 3011 3009 3008 3007 3007 3006 3005 3004 3003 3002 3001 3000 2999 2997 2996 2995 2993 2992 2991 2989 2987 2986 2983 2981 2979 2977 2975 2973 2971 2969 2967 2966 2964 2962 2960 2959 2957 2955 2953 2952 2950 2948 2946 2944 2942 2941 2939 2937 2935 2933 2931 2929 2927
3038 3037 3037 3036 3035 3035 3034 3033 3032 3032 3031 3030 3029 3028 3028 3027 3026 3026 3025 3024 3023 3022 3021 3020 3019 3018 3017 3015 3013 3012 3011 3010 3009 3008 3007 3006 3005 3004 3003 3002 3001 3000 2999 2998 2997 2996 2995 2993 2992 2991 2989 2988 2986 2984 2982 2980 2978 2975 2973 2971 2969 2967 2966 2964 2962 2960 2959 2957 2955 2953 2952 2950 2948 2946 2944 2942 2940 2938 2936 2934 2932 2930 2928 2926 2924 2922
3036 3035 3034 3033 3032 3032 3031 3031 3030 3029 3028 3027 3027 3026 3025 3024 3023 3023 3022 3022 3021 3019 3018 3017 3016 3015 3014 3012 3011 3009 3008 3007 3006 3005 3004 3003 3002 3001 3000 2999 2998 2998 2997 2996 2995 2993 2992 2991 2989 2988 2986 2985 2983 2981 2979 2976 2974 2972 2969 2967 2965 2963 2962 2960 2958 2957 2955 2953 2951 2950 2947 2946 2944 2942 2940 2938 2936 2934 2932 2929 2927 2925 2923 2921 2919 2917
3034 3033 3032 3031 3030 3029 3029 3028 3027 3026 3026 3025 3024 3023 3022 3022 3021 3020 3019 3019 3018 3017 3016 3015 3014 3013 3011 3010 3008 3007 3006 3004 3003 3002 3002 3001 2999 2998 2997 2997 2996 2995 2994 2993 2992 2991 2990 2988 2986 2985 2983 2981 2979 2977 2975 2973 2970 2968 2966 2963 2962 2960 2958 2956 2955 2953 2951 2949 2947 2945 2943 2942 2939 2937 2935 2933 2931 2929 2927 2925 2922 2920 2918 2916 2914 2912
3031 3030 3030 3029 3028 3027 3026 3025 3024 3024 3023 3022 3022 3021 3020 3019 3018 3017 3016 3015 3015 3014 3013 3012 3012 3010 3009 3007 3005 3004 3002 3002 3001 3000 2999 2998 2997 2996 2995 2994 2993 2992 2992 2990 2989 2988 2987 2985 2983 2981 2980 2977 2975 2973 2971 2969 2967 2964 2962 2960 2957 2956 2954 2952 2950 2949 2947 2945 2943 2941 2939 2937 2935 2933 2931 2928 2927 2924 2922 2920 2917 2915 2913 2911 2909 2907
3029 3028 3027 3026 3026 3024 3023 3023 3022 3021 3020 3020 3019 3018 3017 3017 3016 3014 3013 3012 3012 3011 3010 3010 3009 3008 3006 3004 3002 3001 2999 2998 2997 2997 2997 2996 2995 2993 2992 2991 2991 2990 2989 2987 2986 2985 2983 2981 2979 2977 2976 2974 2972 2970 2968 2966 2963 2961 2958 2956 2953 2952 2950 2948 2946 2944 2942 2941 2938 2937 2934 2932 2930 2928 2926 2924 2922 2919 2917 2915 2913 2911 2908 2906 2904 2902
3026 3026 3025 3024 3023 3022 3021 3020 3020 3019 3018 3017 3017 3016 3015 3014 3013 3012 3011 3010 3009 3008 3007 3007 3006 3005 3004 3002 3000 2997 2996 2995 2994 2994 2994 2993 2992 2991 2989 2988 2987 2987 2986 2984 2982 2981 2980 2978 2976 2974 2972 2970 2968 2966 2964 2962 2959 2957 2954 2952 2950 2947 2946 2944 2942 2940 2938 2936 2934 2932 2930 2927 2925 2923 2921 2919 2916 2914 2912 2910 2908 2906 2903 2902 2899 2897
3024 3023 3022 3022 3021 3020 3019 3018 3017 3017 3016 3015 3014 3013 3012 3011 3010 3009 3008 3007 3006 3005 3005 3004 3003 3002 3002 3000 2997 2995 2993 2992 2991 2991 2991 2990 2989 2988 2986 2985 2984 2983 2982 2981 2979 2977 2976 2974 2972 2970 2969 2967 2965 2963 2961 2958 2956 2953 2951 2948 2946 2944 2942 2940 2938 2936 2934 2932 2929 2927 2925 2923 2921 2918 2916 2914 2911 2909 2907 2905 2902 2901 2898 2897 2894 2892
3022 3021 3020 3019 3018 3018 3017 3016 3015 3014 3013 3012 3012 3011 3010 3009 3007 3006 3005 3004 3003 3002 3002 3001 3000 2999 2999 2997 2996 2993 2991 2988 2987 2987 2987 2987 2986 2985 2983 2981 2980 2979 2978 2977 2976 2974 2972 2970 2968 2967 2965 2963 2961 2959 2957 2955 2952 2950 2947 2945 2942 2940 2938 2936 2934 2932 2929 2927 2925 2922 2920 2918 2916 2913 2911 2908 2906 2904 2902 2900 2897 2896 2893 2892 2889 2887
3020 3019 3018 3017 3016 3016 3015 3014 3013 3012 3011 3010 3009 3008 3007 3006 3005 3004 3002 3001 3000 2999 2998 2997 2997 2996 2995 2994 2993 2991 2988 2986 2984 2983 2983 2983 2983 2982 2980 2978 2977 2975 2975 2973 2972 2970 2968 2967 2965 2963 2962 2960 2958 2956 2953 2951 2949 2946 2944 2941 2939 2936 2934 2932 2929 2927 2925 2922 2920 2918 2915 2913 2911 2908 2906 2904 2901 2899 2897 2895 2892 2891 2888 2887 2884 2882
3017 3016 3015 3015 3014 3013 3013 3012 3011 3009 3008 3007 3007 3006 3005 3004 3002 3001 3000 2998 2997 2996 2995 2994 2993 2992 2992 2991 2989 2987 2985 2983 2981 2980 2980 2979 2979 2978 2977 2975 2973 2972 2971 2970 2969 2967 2965 2963 2962 2960 2958 2956 2954 2952 2950 2947 2945 2943 2941 2938 2936 2933 2930 2928 2925 2923 2921 2918 2916 2913 2911 2908 2906 2903 2901 2899 2897 2894 2892 2890 2888 2886 2883 2882 2879 2877
3015 3014 3013 3012 3012 3011 3010 3009 3008 3007 3006 3005 3004 3003 3002 3001 3000 2999 2997 2996 2994 2993 2992 2991 2990 2989 2988 2987 2986 2984 2982 2980 2978 2977 2976 2976 2976 2975 2973 2972 2970 2968 2967 2967 2965 2963 2961 2959 2958 2957 2955 2953 2951 2948 2946 2944 2942 2940 2937 2935 2932 2930 2927 2924 2922 2919 2917 2914 2912 2909 2907 2904 2902 2899 2897 2894 2892 2890 2887 2885 2883 2881 2879 2877 2875 2873
3013 3012 3011 3010 3009 3009 3008 3007 3006 3005 3003 3002 3001 3000 2999 2998 2997 2996 2995 2993 2992 2991 2989 2988 2987 2986 2985 2984 2983 2981 2979 2977 2975 2973 2972 2972 2972 2972 2970 2968 2966 2965 2964 2963 2962 2960 2958 2956 2954 2953 2951 2949 2947 2945 2943 2941 2938 2937 2934 2932 2930 2927 2924 2922 2919 2916 2913 2911 2908 2905 2902 2900 2897 2895 2892 2890 2887 2885 2883 2881 2878 2876 2874 2872 2870 2868
3010 3009 3008 3008 3007 3007 3006 3005 3003 3002 3001 3000 2999 2997 2997 2996 2995 2993 2992 2991 2989 2988 2987 2986 2985 2984 2982 2981 2980 2978 2976 2974 2972 2970 2969 2968 2968 2968 2967 2965 2963 2962 2960 2959 2958 2956 2954 2952 2951 2949 2947 2946 2943 2942 2939 2937 2935 2933 2931 2929 2927 2924 2922 2919 2916 2913 2910 2907 2904 2902 2899 2896 2893 2891 2888 2886 2883 2881 2878 2876 2874 2872 2869 2867 2865 2863
3008 3007 3007 3006 3005 3004 3003 3002 3001 3000 2998 2997 2996 2995 2994 2993 2992 2991 2989 2988 2987 2985 2984 2983 2982 2981 2980 2979 2977 2976 2974 2972 2969 2967 2965 2964 2964 2964 2964 2962 2960 2958 2957 2956 2954 2952 2950 2949 2947 2946 2944 2942 2940 2938 2936 2934 2932 2930 2928 2926 2923 2921 2919 2916 2913 2910 2907 2904 2901 2898 2895 2892 2890 2887 2884 2882 2879 2877 2874 2872 2869 2867 2865 2862 2860 2858
3006 3005 3005 3004 3003 3002 3001 3000 2998 2997 2996 2995 2993 2992 2991 2990 2989 2988 2987 2985 2984 2982 2982 2981 2980 2979 2977 2976 2975 2973 2972 2969 2967 2964 2962 2961 2960 2960 2960 2958 2956 2954 2953 2952 2951 2948 2947 2945 2944 2942 2940 2939 2937 2935 2933 2931 2929 2927 2925 2922 2920 2918 2915 2912 2910 2907 2904 2901 2898 2895 2892 2889 2887 2884 2881 2878 2876 2873 2870 2867 2865 2862 2860 2857 2855 2853
3004 3003 3002 3002 3000 2999 2998 2997 2996 2995 2993 2992 2991 2990 2989 2987 2986 2985 2984 2982 2981 2979 2978 2977 2977 2976 2974 2973 2972 2971 2969 2967 2964 2962 2959 2957 2957 2957 2956 2955 2952 2950 2949 2948 2947 2945 2943 2942 2940 2939 2937 2935 2933 2932 2929 2927 2925 2923 2921 2919 2917 2914 2911 2908 2905 2902 2900 2897 2894 2891 2888 2886 2883 2881 2878 2876 2873 2870 2867 2864 2862 2859 2856 2853 2851 2848
3002 3001 3000 2999 2998 2997 2996 2995 2993 2992 2991 2989 2988 2987 2986 2985 2984 2982 2981 2980 2978 2977 2975 2974 2973 2972 2972 2970 2969 2968 2967 2965 2962 2960 2957 2954 2953 2953 2953 2951 2949 2947 2945 2944 2943 2942 2939 2938 2937 2936 2934 2932 2930 2928 2926 2924 2922 2920 2917 2915 2912 2910 2907 2904 2901 2898 2896 2893 2890 2888 2885 2882 2880 2877 2875 2872 2869 2867 2863 2861 2858 2855 2852 2849 2847 2844
2999 2999 2998 2997 2996 2995 2993 2992 2991 2990 2988 2987 2985 2984 2983 2982 2981 2980 2978 2977 2975 2974 2973 2972 2971 2970 2969 2968 2967 2966 2964 2962 2960 2957 2954 2952 2950 2949 2949 2947 2946 2943 2942 2940 2940 2938 2936 2934 2933 2932 2930 2928 2926 2924 2923 2921 2919 2916 2914 2911 2908 2906 2903 2901 2898 2895 2892 2889 2887 2884 2882 2879 2876 2873 2871 2868 2865 2862 2859 2856 2853 2850 2847 2844 2842 2839
2997 2996 2995 2994 2993 2992 2991 2990 2988 2987 2986 2984 2983 2982 2980 2979 2978 2977 2976 2975 2973 2972 2971 2969 2968 2967 2966 2965 2964 2963 2962 2960 2957 2954 2952 2949 2947 2946 2945 2944 2942 2940 2938 2936 2935 2935 2933 2931 2929 2928 2926 2925 2923 2921 2919 2917 2915 2913 2910 2908 2905 2902 2900 2897 2894 2891 2888 2886 2883 2881 2878 2875 2872 2869 2866 2863 2860 2857 2854 2851 2848 2845 2842 2839 2837 2835
2995 2994 2993 2992 2991 2990 2989 2987 2986 2985 2983 2982 2981 2979 2978 2977 2976 2975 2973 2972 2971 2970 2968 2967 2966 2964 2963 2962 2961 2960 2960 2958 2955 2952 2949 2947 2945 2943 2942 2940 2938 2937 2934 2932 2930 2930 2930 2929 2927 2924 2922 2921 2919 2918 2916 2914 2912 2909 2907 2905 2902 2899 2897 2893 2890 2887 2885 2882 2879 2877 2874 2871 2868 2865 2862 2859 2856 2852 2850 2847 2843 2840 2837 2835 2832 2830
2993 2992 2991 2989 2988 2987 2986 2985 2984 2982 2981 2980 2978 2977 2976 2975 2973 2972 2971 2970 2969 2967 2966 2965 2964 2962 2961 2959 2958 2957 2957 2955 2952 2949 2946 2943 2942 2940 2939 2937 2935 2933 2932 2928 2926 2924 2925 2926 2925 2922 2919 2917 2916 2914 2912 2910 2908 2905 2903 2901 2898 2896 2893 2890 2887 2884 2881 2878 2876 2873 2870 2867 2864 2861 2858 2855 2852 2848 2846 2843 2840 2836 2833 2831 2828 2826
2991 2990 2988 2987 2986 2985 2984 2983 2982 2980 2979 2978 2977 2975 2974 2972 2971 2970 2969 2967 2967 2965 2964 2962 2961 2960 2958 2957 2955 2954 2953 2952 2950 2947 2943 2941 2939 2937 2936 2934 2932 2930 2929 2926 2922 2920 2918 2920 2921 2920 2917 2914 2912 2910 2909 2907 2904 2901 2899 2896 2894 2892 2889 2886 2883 2880 2877 2875 2872 2869 2866 2863 2860 2857 2854 2851 2848 2845 2842 2839 2836 2833 2829 2827 2824 2822
2989 2988 2987 2985 2984 2983 2982 2980 2979 2978 2977 2976 2974 2973 2972 2970 2969 2968 2967 2965 2964 2963 2961 2960 2958 2957 2956 2954 2952 2951 2950 2949 2947 2944 2941 2938 2936 2934 2933 2931 2929 2927 2925 2923 2921 2917 2914 2913 2914 2915 2914 2912 2909 2907 2905 2903 2900 2897 2895 2892 2889 2887 2885 2882 2879 2876 2873 2871 2868 2866 2863 2860 2857 2853 2851 2847 2844 2842 2839 2836 2833 2830 2826 2823 2821 2819
2987 2986 2984 2983 2982 2981 2979 2978 2977 2976 2975 2973 2972 2971 2970 2968 2967 2966 2964 2963 2962 2960 2959 2957 2956 2954 2953 2952 2950 2949 2947 2946 2943 2941 2938 2935 2933 2931 2930 2928 2926 2924 2922 2920 2918 2915 2912 2910 2909 2908 2908 2908 2906 2903 2901 2898 2896 2894 2891 2888 2885 2882 2880 2878 2875 2872 2869 2867 2864 2862 2859 2856 2853 2850 2847 2844 2841 2838 2836 2833 2830 2827 2824 2821 2818 2815
2985 2983 2982 2981 2980 2978 2977 2976 2975 2973 2972 2971 2970 2969 2967 2966 2965 2964 2962 2961 2960 2958 2957 2955 2953 2952 2950 2949 2948 2947 2945 2943 2941 2938 2935 2932 2930 2928 2926 2925 2923 2921 2918 2916 2914 2912 2909 2907 2906 2904 2902 2902 2902 2901 2898 2895 2892 2889 2887 2885 2882 2879 2876 2873 2871 2867 2865 2862 2860 2857 2855 2852 2849 2846 2843 2841 2838 2835 2832 2830 2827 2825 2822 2819 2816 2812
2983 2982 2980 2979 2977 2976 2975 2974 2973 2972 2970 2969 2968 2967 2966 2964 2963 2962 2961 2959 2957 2956 2954 2953 2951 2950 2948 2947 2945 2943 2942 2941 2938 2936 2933 2930 2927 2925 2923 2922 2920 2917 2915 2912 2911 2909 2906 2904 2902 2901 2898 2896 2896 2896 2895 2892 2889 2886 2884 2881 2878 2875 2872 2870 2867 2863 2861 2858 2856 2853 2850 2848 2845 2842 2839 2837 2834 2832 2829 2827 2825 2822 2820 2817 2814 2811
2981 2980 2978 2977 2976 2974 2973 2972 2971 2970 2968 2967 2966 2965 2964 2962 2961 2960 2958 2957 2956 2954 2952 2951 2949 2948 2946 2944 2943 2941 2939 2938 2936 2933 2931 2928 2925 2923 2920 2918 2917 2915 2912 2909 2907 2905 2902 2900 2898 2897 2895 2893 2891 2890 2890 2889 2887 2884 2881 2878 2875 2872 2869 2867 2863 2860 2857 2854 2852 2849 2846 2844 2841 2838 2836 2833 2831 2828 2826 2824 2822 2820 2818 2815 2813 2810
2979 2978 2977 2975 2974 2973 2972 2970 2969 2968 2967 2966 2964 2963 2962 2961 2959 2958 2957 2955 2954 2952 2951 2949 2947 2946 2944 2942 2941 2939 2937 2935 2933 2931 2929 2926 2923 2921 2918 2916 2914 2912 2910 2907 2904 2901 2899 2897 2895 2893 2892 2891 2888 2886 2885 2883 2882 2881 2878 2876 2873 2869 2866 2863 2860 2857 2853 2850 2848 2845 2843 2840 2837 2834 2832 2830 2827 2825 2823 2822 2820 2818 2815 2813 2811 2808
2978 2976 2975 2973 2972 2971 2970 2969 2968 2967 2966 2964 2963 2962 2961 2959 2958 2957 2955 2953 2952 2951 2949 2947 2946 2944 2943 2941 2939 2937 2936 2934 2932 2929 2927 2924 2922 2919 2917 2914 2912 2910 2908 2905 2902 2899 2897 2894 2892 2890 2888 2887 2886 2884 2882 2880 2878 2876 2874 2872 2870 2867 2864 2860 2857 2854 2851 2847 2844 2842 2839 2837 2834 2831 2828 2826 2824 2822 2820 2818 2817 2815 2812 2810 2808 2806
2976 2975 2973 2972 2971 2970 2969 2967 2967 2965 2964 2963 2962 2960 2959 2958 2956 2955 2953 2952 2950 2949 2947 2946 2944 2943 2942 2940 2938 2936 2934 2932 2930 2928 2926 2923 2920 2917 2915 2912 2910 2907 2905 2903 2900 2897 2895 2892 2890 2888 2886 2883 2882 2880 2879 2877 2875 2872 2869 2867 2865 2864 2862 2858 2854 2851 2848 2845 2842 2839 2836 2833 2831 2828 2825 2823 2820 2818 2816 2814 2813 2811 2809 2807 2804 2802
2974 2973 2972 2971 2970 2968 2967 2966 2965 2964 2963 2962 2960 2959 2957 2956 2955 2953 2952 2951 2949 2947 2946 2944 2943 2942 2940 2938 2937 2935 2933 2931 2929 2927 2924 2922 2919 2916 2913 2911 2908 2905 2903 2901 2898 2896 2893 2890 2888 2886 2884 2881 2878 2877 2875 2874 2872 2869 2866 2862 2860 2858 2857 2855 2852 2848 2845 2842 2839 2836 2833 2830 2828 2825 2822 2820 2817 2815 2812 2810 2809 2807 2806 2804 2801 2798
2973 2972 2971 2969 2968 2967 2966 2965 2964 2963 2962 2960 2959 2957 2956 2955 2953 2952 2951 2950 2948 2947 2945 2943 2942 2940 2939 2937 2935 2933 2931 2929 2927 2925 2922 2920 2917 2914 2911 2908 2906 2903 2901 2898 2896 2894 2892 2889 2886 2883 2881 2879 2876 2873 2872 2871 2869 2867 2863 2859 2856 2854 2853 2852 2850 2846 2842 2839 2836 2833 2830 2827 2824 2822 2819 2817 2814 2812 2810 2807 2805 2804 2802 2800 2798 2795
2972 2970 2969 2968 2967 2966 2965 2964 2963 2962 2960 2959 2957 2956 2954 2953 2952 2951 2950 2948 2947 2945 2943 2942 2940 2938 2937 2936 2934 2932 2930 2927 2925 2923 2920 2917 2915 2912 2909 2907 2904 2901 2898 2896 2893 2891 2889 2887 2884 2881 2878 2876 2873 2871 2869 2867 2866 2864 2861 2857 2853 2850 2848 2847 2847 2844 2840 2837 2834 2831 2828 2824 2821 2818 2816 2814 2811 2809 2807 2805 2803 2801 2799 2797 2795 2793
2970 2969 2968 2967 2966 2965 2964 2962 2961 2960 2959 2957 2956 2954 2953 2952 2951 2949 2948 2947 2945 2943 2942 2940 2938 2937 2935 2934 2932 2930 2928 2926 2924 2921 2918 2915 2912 2910 2907 2904 2901 2899 2896 2893 2890 2888 2886 2884 2882 2879 2876 2873 2871 2868 2866 2864 2863 2861 2858 2855 2852 2847 2844 2842 2841 2840 2838 2835 2832 2828 2825 2822 2818 2816 2813 2811 2808 2806 2804 2802 2800 2799 2797 2795 2792 2790
2969 2967 2967 2966 2964 2963 2962 2961 2960 2958 2957 2956 2954 2953 2952 2950 2949 2947 2946 2944 2943 2941 2940 2938 2936 2935 2933 2931 2929 2927 2926 2924 2922 2919 2916 2913 2910 2907 2904 2901 2898 2896 2893 2891 2888 2885 2882 2880 2878 2877 2875 2872 2869 2867 2864 2862 2859 2857 2855 2853 2850 2847 2843 2840 2838 2836 2833 2831 2828 2825 2822 2819 2815 2812 2810 2808 2806 2803 2801 2799 2798 2796 2795 2793 2790 2788
2967 2966 2965 2964 2963 2962 2960 2959 2958 2957 2956 2954 2953 2952 2950 2949 2947 2946 2944 2942 2941 2939 2938 2936 2934 2932 2931 2929 2927 2925 2922 2921 2918 2916 2913 2910 2908 2905 2902 2899 2896 2893 2891 2888 2886 2883 2881 2878 2876 2873 2872 2870 2867 2865 2863 2860 2857 2854 2852 2850 2847 2844 2841 2839 2836 2833 2829 2827 2824 2822 2819 2816 2813 2810 2807 2804 2802 2800 2799 2797 2795 2794 2792 2790 2788 2786
2966 2964 2963 2962 2961 2960 2959 2957 2957 2955 2954 2953 2952 2950 2948 2947 2946 2944 2942 2941 2939 2937 2936 2934 2932 2930 2928 2926 2924 2922 2920 2917 2915 2913 2911 2908 2905 2902 2900 2897 2894 2892 2889 2886 2883 2881 2878 2876 2873 2871 2869 2867 2865 2863 2861 2858 2855 2852 2849 2847 2844 2842 2839 2836 2833 2830 2827 2823 2821 2818 2816 2813 2811 2808 2805 2802 2800 2798 2797 2795 2793 2792 2790 2788 2786 2783
2964 2962 2962 2960 2959 2958 2957 2956 2955 2954 2952 2951 2950 2948 2947 2946 2944 2942 2941 2939 2937 2936 2934 2932 2930 2928 2926 2923 2921 2919 2917 2914 2912 2910 2908 2905 2902 2900 2897 2895 2892 2889 2887 2884 2881 2879 2876 2874 2872 2869 2867 2864 2862 2860 2858 2856 2853 2850 2846 2843 2841 2838 2836 2833 2831 2827 2824 2821 2818 2816 2814 2811 2808 2806 2803 2800 2798 2796 2794 2793 2792 2790 2788 2786 2783 2781
2962 2961 2960 2958 2957 2957 2956 2954 2953 2952 2951 2950 2948 2947 2946 2944 2942 2941 2939 2937 2936 2934 2932 2930 2928 2926 2924 2922 2919 2917 2914 2912 2910 2907 2905 2902 2900 2897 2895 2892 2890 2887 2885 2882 2879 2877 2874 2872 2870 2867 2865 2862 2859 2857 2854 2853 2851 2847 2844 2841 2838 2835 2832 2830 2828 2825 2822 2820 2817 2815 2813 2810 2807 2804 2801 2798 2796 2794 2792 2791 2790 2788 2787 2784 2781 2779
2960 2959 2958 2957 2956 2955 2954 2953 2952 2951 2949 2948 2947 2946 2944 2943 2941 2939 2937 2936 2934 2932 2930 2928 2926 2924 2922 2920 2917 2915 2912 2910 2908 2905 2903 2900 2898 2895 2893 2890 2888 2885 2882 2880 2878 2875 2872 2870 2868 2866 2863 2861 2857 2854 2851 2849 2847 2845 2842 2839 2836 2833 2830 2828 2826 2823 2821 2818 2816 2814 2812 2809 2807 2804 2801 2798 2795 2792 2791 2789 2788 2786 2785 2782 2780 2778
2958 2957 2956 2955 2954 2953 2952 2951 2950 2949 2948 2947 2945 2944 2943 2941 2940 2938 2936 2934 2932 2930 2928 2926 2924 2922 2920 2917 2915 2913 2911 2908 2906 2903 2901 2898 2896 2893 2891 2888 2886 2883 2880 2878 2876 2873 2870 2867 2865 2863 2861 2859 2856 2852 2849 2846 2844 2842 2840 2837 2835 2832 2829 2827 2824 2822 2820 2817 2815 2813 2811 2808 2806 2804 2801 2797 2794 2792 2789 2787 2786 2784 2783 2781 2779 2777
2956 2955 2954 2953 2952 2952 2951 2949 2948 2947 2946 2945 2943 2942 2941 2940 2938 2936 2934 2932 2930 2928 2926 2924 2922 2920 2918 2916 2913 2911 2909 2907 2904 2902 2899 2897 2894 2892 2889 2886 2884 2881 2878 2875 2873 2871 2868 2865 2862 2861 2859 2858 2855 2852 2848 2845 2842 2840 2838 2836 2834 2832 2828 2826 2823 2821 2819 2816 2814 2812 2810 2807 2805 2803 2800 2797 2794 2790 2788 2786 2785 2783 2782 2780 2779 2777